[[{"header":{"parameterUnit":"m.s-1","parameterCategory":1,"la1":30.2991,"la2":30.254,"lo1":-89.0895,"lo2":-89.0444,"dy":0.0017,"dx":0.0017,"nx":28,"ny":28,"refTime":"2025-07-12T21:00:00:Z","depth":0,"parameterNumber":2,"parameterNumberName":"U-component_of_WINDS"},"data":[0,0,0,0,0,0,0,0,0,0,0,0,0,0,0,0,0,0,0,0,0,0,0,0,0,0,0,0,0,0,0,0,0,0,0,0,0,0,0,0,0,0,0,0,0,0,0,0,0,0,0,0,0,0,0,0,0,0,0.0391,0.0392,0,0.0449,0.0449,0.045,0.0472,0.0472,0.0472,0.0472,0.0531,0.0533,0.0534,0,0,0,0,0,0,0,0,0,0,0,0,0,0.0299,0.03,0.0391,0.0392,0.0392,0.0448,0.0449,0.045,0.0472,0.0472,0.0472,0.0472,0.053,0.0532,0.0535,0,0,0,0,0,0,0,0,0,0,0,0,0,0.0346,0.0301,0.0391,0.041,0.0413,0.0448,0.0449,0.045,0.0472,0.0472,0.0472,0.0472,0.053,0.0532,0.0535,0.0556,0,0,0.0543,0.0544,0,0,0,0,0,0,0,0,0.0343,0.0349,0.0407,0.0409,0.0412,0.0453,0.0438,0.0486,0.0472,0.045,0.0472,0.0471,0.0505,0.051,0.0521,0.0558,0.0561,0.0543,0.0544,0.0546,0.0546,0,0,0,0,0,0,0,0.034,0.0347,0.0414,0.0407,0.041,0.0416,0.0422,0.0447,0.0478,0.0452,0.0453,0.046,0.0507,0.0519,0.0523,0.0562,0.0543,0.0545,0.0547,0.0548,0.0617,0.0618,0,0,0,0,0,0,0.0333,0.0344,0.0412,0.0415,0.0376,0.0417,0.0425,0.044,0.0478,0.0483,0.046,0.0461,0.0514,0.052,0.0525,0.0551,0.0546,0.0548,0.055,0.0617,0.0617,0.0618,0,0,0,0,0,0,0.0331,0.0339,0.041,0.038,0.0389,0.0419,0.0436,0.0441,0.0453,0.0484,0.049,0.0467,0.0514,0.0521,0.0547,0.0553,0.0549,0.0552,0.0617,0.0617,0.0618,0.0604,0,0,0,0,0,0,0.0329,0.0338,0.0347,0.038,0.0391,0.0432,0.0437,0.0442,0.0458,0.0459,0.0492,0.0497,0.0515,0.0543,0.055,0.0557,0.0554,0.0616,0.0617,0.0617,0.0604,0.0604,0.0604,0,0,0,0,0,0.0325,0.0341,0.0347,0.0355,0.0402,0.0432,0.0438,0.0458,0.0458,0.0467,0.0486,0.0496,0.0551,0.0546,0.0554,0.0561,0.0616,0.0617,0.0617,0.0604,0.0604,0.0604,0,0,0,0,0,0,0.0308,0.0346,0.0353,0.038,0.0403,0.0436,0.0447,0.0457,0.048,0.048,0.0503,0.0511,0.0535,0.0551,0.0544,0.0583,0.0584,0.0587,0.0572,0.0572,0.0571,0.0567,0.0556,0,0,0,0,0,0.0308,0.0329,0.036,0.0381,0.0392,0.0417,0.0431,0.0444,0.0468,0.0478,0.0499,0.0522,0.0544,0.0559,0.0581,0.0606,0.0613,0.0615,0.0615,0.0614,0.0616,0.0629,0.063,0.062,0.062,0.062,0,0,0.0307,0.033,0.0342,0.0378,0.0397,0.0418,0.0425,0.0447,0.0463,0.0481,0.0507,0.0523,0.055,0.0575,0.0588,0.0589,0.062,0.0615,0.0615,0.0617,0.063,0.0631,0.0632,0.062,0.062,0.062,0,0,0.0316,0.0335,0.0355,0.0373,0.0401,0.0418,0.0422,0.0453,0.0465,0.0491,0.0505,0.0523,0.0561,0.058,0.0594,0.0608,0.0617,0.0614,0.0614,0.0626,0.0627,0.0628,0.0632,0.0634,0.0616,0.0616,0.0616,0,0.0311,0.0343,0.0363,0.0384,0.0399,0.0416,0.0435,0.0452,0.0486,0.0496,0.0497,0.0545,0.0564,0.0593,0.0596,0.0607,0.0613,0.0611,0.0625,0.0626,0.0628,0.0632,0.0634,0.0615,0.0615,0.0615,0.0615,0,0.0336,0.0357,0.0369,0.0401,0.0418,0.0438,0.046,0.0474,0.0485,0.0501,0.0527,0.0551,0.0578,0.0585,0.0597,0.0616,0.0616,0.0621,0.0623,0.0628,0.0632,0.0634,0.0614,0.0615,0.0615,0.0615,0,0,0.0337,0.0378,0.0383,0.0397,0.0428,0.0445,0.0465,0.0491,0.0503,0.0525,0.0542,0.0573,0.0577,0.0594,0.0607,0.0618,0.0626,0.0621,0.0622,0.0621,0.0648,0.0644,0.0646,0.0632,0.0633,0.0633,0.0645,0,0.035,0.0387,0.0405,0.0434,0.0453,0.0469,0.0486,0.0507,0.0522,0.0541,0.0557,0.0579,0.0583,0.0593,0.0604,0.0623,0.0632,0.0622,0.0648,0.0649,0.0641,0.0648,0.0645,0.0655,0.0647,0.0648,0.0648,0,0.0371,0.0392,0.0423,0.0451,0.046,0.0475,0.05,0.0518,0.0541,0.0551,0.0568,0.0581,0.0601,0.0601,0.063,0.0623,0.0634,0.0645,0.0646,0.0649,0.0649,0.0652,0.0659,0.0661,0.0651,0.0651,0.0651,0,0.0368,0.0405,0.0428,0.0439,0.0473,0.0483,0.0497,0.052,0.0534,0.0555,0.0565,0.0588,0.0601,0.0618,0.0636,0.0635,0.0663,0.0665,0.0672,0.0671,0.0678,0.0677,0.0687,0.0684,0.0684,0.0684,0.0684,0,0.0381,0.0399,0.0427,0.0441,0.0462,0.0481,0.0501,0.0516,0.0536,0.0553,0.0567,0.0583,0.0606,0.0624,0.0638,0.0659,0.0665,0.0673,0.0677,0.0672,0.0671,0.068,0.068,0.0685,0.0685,0.0685,0.0685,0,0.0382,0.0401,0.0427,0.0456,0.0464,0.0477,0.0502,0.0516,0.0531,0.0552,0.0558,0.0582,0.0604,0.0623,0.0652,0.0662,0.0683,0.0688,0.0675,0.0678,0.0683,0.0682,0.07,0.0703,0.0698,0.0698,0.0698,0,0.0389,0.0403,0.0433,0.0446,0.0459,0.0479,0.0493,0.0513,0.0527,0.0553,0.0564,0.0586,0.0606,0.064,0.066,0.0681,0.0687,0.0691,0.069,0.0685,0.0687,0.0686,0.0687,0.0691,0.0691,0.0691,0.0691,0,0.0399,0.0408,0.0428,0.0451,0.0467,0.0486,0.0506,0.0515,0.0537,0.0552,0.0575,0.0589,0.0618,0.0641,0.0665,0.0679,0.0688,0.0691,0.0694,0.0689,0.0682,0.0686,0.0675,0.0691,0.0691,0.0691,0.0691,0.0691,0.0404,0.0417,0.044,0.0461,0.0477,0.0495,0.0509,0.0525,0.0544,0.057,0.058,0.0602,0.0624,0.0657,0.067,0.0688,0.069,0.0694,0.0695,0.0696,0.0695,0.0678,0.0692,0.0692,0.0692,0.0692,0.0692,0,0.0415,0.043,0.0449,0.0476,0.0492,0.0499,0.0521,0.0534,0.0554,0.0573,0.0591,0.0616,0.0637,0.0658,0.068,0.069,0.0695,0.0695,0.0695,0.0698,0.0692,0.0687,0.0691,0.0691,0.0691,0.0691,0.0691,0.0691,0.0422,0.0445,0.0456,0.0485,0.05,0.0523,0.0534,0.055,0.0565,0.0592,0.061,0.0623,0.0643,0.0666,0.0686,0.0691,0.0699,0.0698,0.0704,0.0698,0.0698,0.0698,0.0694,0.0699,0.0699,0.0709,0.0709,0.0709]},{"header":{"parameterUnit":"m.s-1","parameterCategory":1,"la1":30.2991,"la2":30.254,"lo1":-89.0895,"lo2":-89.0444,"dy":0.0017,"dx":0.0017,"nx":28,"ny":28,"refTime":"2025-07-12T21:00:00:Z","depth":0,"parameterNumber":3,"parameterNumberName":"V-component_of_WINDS"},"data":[0,0,0,0,0,0,0,0,0,0,0,0,0,0,0,0,0,0,0,0,0,0,0,0,0,0,0,0,0,0,0,0,0,0,0,0,0,0,0,0,0,0,0,0,0,0,0,0,0,0,0,0,0,0,0,0,0,0,4.3318,4.3317,0,4.329,4.329,4.329,4.3238,4.3236,4.3235,4.3234,4.3207,4.3208,4.3208,0,0,0,0,0,0,0,0,0,0,0,0,0,4.3326,4.3326,4.3318,4.3317,4.3317,4.329,4.329,4.329,4.3238,4.3236,4.3235,4.3234,4.3207,4.3208,4.3208,0,0,0,0,0,0,0,0,0,0,0,0,0,4.3313,4.3326,4.3318,4.3288,4.3285,4.3291,4.329,4.329,4.3238,4.3236,4.3235,4.3233,4.3207,4.3208,4.3208,4.3241,0,0,4.3209,4.3209,0,0,0,0,0,0,0,0,4.3314,4.3313,4.3293,4.329,4.3287,4.3266,4.3283,4.3273,4.3238,4.3256,4.3234,4.3233,4.3228,4.3227,4.3225,4.3239,4.3238,4.3209,4.3209,4.3209,4.3209,0,0,0,0,0,0,0,4.3315,4.3314,4.3307,4.3292,4.3289,4.3276,4.3273,4.3281,4.3251,4.3254,4.325,4.3248,4.3226,4.3225,4.3224,4.3238,4.3209,4.3209,4.3209,4.321,4.3278,4.328,0,0,0,0,0,0,4.332,4.3315,4.3308,4.3306,4.3297,4.3277,4.3273,4.3274,4.3251,4.3246,4.3249,4.3245,4.3225,4.3224,4.3223,4.3259,4.3209,4.321,4.321,4.3277,4.3279,4.328,0,0,0,0,0,0,4.332,4.332,4.3309,4.3309,4.3307,4.3279,4.328,4.3274,4.3273,4.3247,4.3241,4.3253,4.3224,4.3222,4.3237,4.3258,4.321,4.321,4.3275,4.3277,4.328,4.3334,0,0,0,0,0,0,4.3321,4.332,4.3332,4.331,4.3307,4.3323,4.3281,4.3275,4.3273,4.3268,4.3249,4.3244,4.3222,4.3236,4.3237,4.3257,4.321,4.3273,4.3276,4.3279,4.333,4.3338,4.3344,0,0,0,0,0,4.3321,4.3348,4.3333,4.3332,4.3321,4.3324,4.3323,4.3297,4.3275,4.3287,4.3271,4.3245,4.3256,4.3238,4.3239,4.3259,4.3271,4.3275,4.3279,4.3327,4.3336,4.3344,0,0,0,0,0,0,4.3374,4.3345,4.3327,4.3348,4.3339,4.3316,4.333,4.3307,4.3304,4.33,4.3268,4.3264,4.3283,4.3272,4.3254,4.329,4.3259,4.3263,4.3296,4.3305,4.3312,4.3314,4.3211,0,0,0,0,0,4.3388,4.3392,4.3367,4.3388,4.3384,4.3358,4.3358,4.3339,4.3328,4.3324,4.3309,4.33,4.3301,4.3302,4.3302,4.3328,4.3323,4.3343,4.335,4.3356,4.336,4.3373,4.3381,4.3292,4.3292,4.3292,0,0,4.3417,4.3402,4.3407,4.3398,4.3389,4.3395,4.3355,4.3363,4.3367,4.3325,4.3338,4.3327,4.3314,4.3335,4.3343,4.3327,4.3384,4.3361,4.3366,4.3366,4.3378,4.3386,4.3394,4.3295,4.3294,4.3294,0,0,4.3473,4.3462,4.3478,4.3469,4.3456,4.3438,4.3442,4.3422,4.3413,4.3425,4.3394,4.3399,4.3401,4.3394,4.3391,4.3445,4.3421,4.3445,4.3483,4.3496,4.3503,4.3509,4.3528,4.3536,4.3449,4.3449,4.3449,0,4.351,4.3517,4.3489,4.3499,4.3496,4.3459,4.3475,4.3469,4.3456,4.3455,4.3437,4.344,4.343,4.3448,4.3461,4.346,4.3464,4.3447,4.3505,4.351,4.3516,4.3533,4.3541,4.3452,4.3452,4.3452,4.3451,0,4.3564,4.357,4.3585,4.3573,4.3572,4.3585,4.3559,4.3562,4.3543,4.3528,4.3541,4.3527,4.3523,4.3526,4.3508,4.3542,4.3532,4.351,4.3479,4.3528,4.3544,4.355,4.3457,4.3456,4.3455,4.3454,0,0,4.3652,4.3625,4.363,4.3625,4.3607,4.3611,4.3623,4.3619,4.3622,4.3615,4.3624,4.3628,4.3607,4.3603,4.3584,4.3596,4.3639,4.3572,4.3571,4.3585,4.3676,4.3693,4.3701,4.3624,4.3625,4.3626,4.3677,0,4.3703,4.3721,4.3696,4.372,4.3724,4.369,4.37,4.3691,4.3677,4.3679,4.3664,4.3667,4.364,4.3637,4.3648,4.3632,4.3657,4.3628,4.3632,4.3633,4.3635,4.3709,4.3727,4.3776,4.3683,4.3684,4.3685,0,4.3765,4.3761,4.3785,4.3766,4.3767,4.3777,4.3771,4.3774,4.3763,4.3752,4.3749,4.3726,4.3736,4.3706,4.3721,4.3701,4.3702,4.3694,4.3696,4.3694,4.3661,4.371,4.379,4.3798,4.3695,4.3694,4.3693,0,4.3826,4.3826,4.384,4.3837,4.3815,4.3823,4.3815,4.3802,4.3802,4.3797,4.3797,4.3794,4.3792,4.3791,4.3768,4.3748,4.3785,4.3753,4.3777,4.3777,4.3785,4.3785,4.3867,4.3787,4.3787,4.3786,4.3786,0,4.3885,4.3901,4.3867,4.3876,4.3893,4.3865,4.3883,4.3871,4.386,4.3867,4.3837,4.3844,4.3813,4.3817,4.3799,4.3814,4.3813,4.3805,4.38,4.3807,4.3808,4.3806,4.3802,4.3788,4.3788,4.3788,4.3787,0,4.3956,4.3933,4.3947,4.3926,4.3921,4.3935,4.3917,4.3924,4.3909,4.3917,4.3917,4.3893,4.3896,4.3873,4.3871,4.386,4.3882,4.3872,4.3886,4.3882,4.3907,4.3905,4.3989,4.3999,4.3914,4.3915,4.3915,0,4.3995,4.4006,4.3987,4.3988,4.3982,4.3985,4.3984,4.3958,4.3958,4.3947,4.3956,4.3956,4.3955,4.3961,4.3943,4.3942,4.3931,4.3961,4.393,4.3937,4.3931,4.393,4.3931,4.3967,4.3968,4.3969,4.3969,0,4.4067,4.4055,4.4055,4.4052,4.4052,4.4048,4.4042,4.4045,4.4016,4.4018,4.402,4.4019,4.4018,4.4018,4.4014,4.4005,4.3983,4.3979,4.3984,4.3992,4.3999,4.3995,4.3903,4.3977,4.3976,4.3976,4.3975,4.3975,4.4122,4.4131,4.4118,4.4119,4.4112,4.4107,4.4113,4.4099,4.41,4.4096,4.4081,4.4086,4.4075,4.4067,4.4061,4.4064,4.405,4.4058,4.4059,4.4062,4.4066,4.3999,4.4064,4.4063,4.4063,4.4063,4.4063,0,4.4192,4.4182,4.4184,4.4176,4.4177,4.4156,4.4149,4.4151,4.4156,4.4148,4.4147,4.415,4.415,4.4133,4.4132,4.4138,4.4128,4.4139,4.4138,4.4136,4.4079,4.4075,4.4147,4.4147,4.4147,4.4147,4.4147,4.4147,4.4228,4.4242,4.4229,4.4239,4.4229,4.4234,4.4231,4.4227,4.422,4.4225,4.4225,4.4214,4.4202,4.42,4.42,4.4195,4.4195,4.421,4.4201,4.4148,4.414,4.4132,4.4128,4.421,4.421,4.4258,4.4258,4.4258]}]]